GW5226 Weather Reports


time (UTC)temp
C
wind
direction
speed
KPH
gust
KPH
rain 1hr
cm
rain 24hr
cm
rain mn
cm
humidity
%
barometer
mb
20260502130240 6 188 3.2 6.4 0.00 0.00 0.00 54 965.4
20260502123741 5 177 1.6 8.0 0.00 0.00 0.00 57 965.4
20260502123241 5 197 3.2 6.4 0.00 0.00 0.00 58 965.5
20260502123000 4 254 1.6 6.4 0.00 0.00 0.00 58 965.6
20260502122242 4 191 1.6 6.4 0.00 0.00 0.00 60 965.7
20260502121741 3 291 1.6 6.4 0.00 0.00 0.00 62 965.7
20260502121241 3 145 1.6 6.4 0.00 0.00 0.00 62 965.7
20260502120741 3 0 1.6 6.4 0.00 0.00 0.00 62 965.8
20260502120241 3 0 1.6 6.4 0.00 0.00 0.00 62 965.7
20260502115738 3 0 1.6 6.4 0.00 0.00 0.00 63 965.7
20260502115236 2 220 1.6 4.8 0.00 0.00 0.00 66 965.8
20260502115000 2 227 1.6 4.8 0.00 0.00 0.00 66 965.7
20260502114235 2 0 0.0 3.2 0.00 0.00 0.00 68 965.8
20260502113235 1 0 0.0 3.2 0.00 0.00 0.00 70 965.8
20260502112956 1 203 0.0 3.2 0.00 0.00 0.00 71 965.8
20260502111732 1 0 0.0 1.6 0.00 0.00 0.00 71 965.9
20260502111233 1 0 0.0 3.2 0.00 0.00 0.00 71 965.9
20260502110732 0 0 0.0 3.2 0.00 0.00 0.00 72 965.9
20260502110245 0 0 0.0 1.6 0.00 0.00 0.00 73 966.0
20260502105733 0 0 0.0 1.6 0.00 0.00 0.00 73 966.1
20260502105233 0 0 0.0 1.6 0.00 0.00 0.00 74 966.0
20260502104233 0 0 0.0 1.6 0.00 0.00 0.00 76 966.1
20260502103732 0 0 0.0 1.6 0.00 0.00 0.00 76 966.1
20260502102733 0 0 0.0 0.0 0.00 0.00 0.00 77 966.2
20260502102233 0 0 0.0 0.0 0.00 0.00 0.00 78 966.2
20260502101733 0 0 0.0 0.0 0.00 0.00 0.00 78 966.3
20260502101232 0 0 0.0 0.0 0.00 0.00 0.00 78 966.3
20260502100733 0 0 0.0 0.0 0.00 0.00 0.00 79 966.4
20260502100230 0 0 0.0 0.0 0.00 0.00 0.00 79 966.4
20260502091231 0 0 0.0 0.0 0.00 0.00 0.00 77 966.4
20260502090731 0 0 0.0 1.6 0.00 0.00 0.00 78 966.4
20260502090232 0 0 0.0 1.6 0.00 0.00 0.00 76 966.4
20260502071141 0 270 0.0 1.6 0.00 0.00 0.00 78 966.8
20260502070639 0 0 0.0 1.6 0.00 0.00 0.00 78 966.8
20260502070151 1 0 0.0 1.6 0.00 0.00 0.00 78 966.8
20260502065639 1 0 0.0 1.6 0.00 0.00 0.00 77 966.8
20260502065138 1 0 0.0 1.6 0.00 0.00 0.00 77 966.9
20260502064639 1 0 0.0 1.6 0.00 0.00 0.00 76 966.9
20260502064139 1 0 0.0 1.6 0.00 0.00 0.00 76 966.8
20260502063139 1 0 0.0 1.6 0.00 0.00 0.00 76 966.9
20260502062639 1 0 0.0 1.6 0.00 0.00 0.00 77 966.9
20260502062139 1 0 0.0 1.6 0.00 0.00 0.00 77 966.9
20260502061639 1 0 0.0 1.6 0.00 0.00 0.00 75 966.9
20260502061139 1 0 0.0 1.6 0.00 0.00 0.00 75 966.9
20260502060638 1 0 0.0 1.6 0.00 0.00 0.00 74 966.9
20260502060142 1 0 0.0 1.6 0.00 0.00 0.00 74 966.9
20260502055639 2 0 0.0 3.2 0.00 0.00 0.00 73 966.9
20260502055152 2 0 1.6 6.4 0.00 0.00 0.00 72 966.9
20260502054640 2 0 1.6 6.4 0.00 0.00 0.00 72 966.7
20260502054136 2 305 1.6 6.4 0.00 0.00 0.00 79 966.7
20260502053637 2 0 0.0 6.4 0.00 0.00 0.00 78 966.7
20260502053137 2 0 0.0 3.2 0.00 0.00 0.00 79 966.7
20260502052636 2 0 0.0 3.2 0.00 0.00 0.00 77 966.7
20260502052137 2 0 0.0 3.2 0.00 0.00 0.00 78 966.7
20260502051638 2 0 0.0 1.6 0.00 0.00 0.00 78 966.7
20260502050637 2 0 0.0 0.0 0.00 0.00 0.00 75 966.7
20260502050136 2 0 0.0 0.0 0.00 0.00 0.00 74 966.8
20260502045636 2 0 0.0 1.6 0.00 0.00 0.00 72 966.8
20260502045137 2 0 0.0 4.8 0.00 0.00 0.00 72 966.8
20260502044637 2 0 0.0 4.8 0.00 0.00 0.00 72 966.9
20260502044135 3 138 0.0 3.2 0.00 0.00 0.00 68 966.9
20260502043634 3 167 0.0 3.2 0.00 0.00 0.00 67 966.9
20260502043134 3 0 0.0 3.2 0.00 0.00 0.00 66 966.9
20260502042631 3 315 0.0 1.6 0.00 0.00 0.00 66 966.9
20260502042131 3 219 0.0 3.2 0.00 0.00 0.00 66 966.9
20260502041629 3 0 0.0 3.2 0.00 0.00 0.00 63 966.8
20260502041128 3 0 0.0 1.6 0.00 0.00 0.00 63 966.9
20260502040628 3 0 0.0 3.2 0.00 0.00 0.00 63 966.8
20260502035629 4 192 0.0 3.2 0.00 0.00 0.00 61 966.8
20260502035129 3 325 0.0 3.2 0.00 0.00 0.00 60 966.8
20260502034629 4 0 0.0 3.2 0.00 0.00 0.00 61 966.8
20260502034129 4 283 0.0 4.8 0.00 0.00 0.00 60 966.7
20260502033629 4 0 0.0 4.8 0.00 0.00 0.00 59 966.7
20260502033129 4 295 0.0 1.6 0.00 0.00 0.00 59 966.7
20260502032629 5 0 0.0 3.2 0.00 0.00 0.00 59 966.7
20260502032128 5 0 0.0 3.2 0.00 0.00 0.00 58 966.6
20260502031629 5 0 0.0 3.2 0.00 0.00 0.00 58 966.6
20260502031129 5 0 0.0 1.6 0.00 0.00 0.00 59 966.5
20260502030629 5 0 0.0 1.6 0.00 0.00 0.00 58 966.4
20260502030130 6 0 0.0 3.2 0.00 0.00 0.00 55 966.4
20260502025627 6 0 0.0 3.2 0.00 0.00 0.00 54 966.4
20260502025126 6 0 0.0 3.2 0.00 0.00 0.00 53 966.4
20260502024626 6 195 0.0 3.2 0.00 0.00 0.00 52 966.3
20260502024127 6 280 0.0 3.2 0.00 0.00 0.00 50 966.3
20260502023626 6 0 0.0 3.2 0.00 0.00 0.00 50 966.3
20260502023126 6 0 0.0 3.2 0.00 0.00 0.00 53 966.3
20260502022626 6 0 0.0 3.2 0.00 0.00 0.00 52 966.3
20260502021623 7 0 0.0 1.6 0.00 0.00 0.00 50 966.2
20260502020623 7 0 0.0 1.6 0.00 0.00 0.00 48 966.1
20260502020137 8 0 0.0 1.6 0.00 0.00 0.00 47 966.1
20260502015624 8 0 0.0 4.8 0.00 0.00 0.00 47 966.1
20260502015124 8 0 1.6 4.8 0.00 0.00 0.00 45 966.0
20260502013622 9 347 1.6 4.8 0.00 0.00 0.00 42 965.7
20260502012619 10 323 3.2 9.7 0.00 0.00 0.00 41 965.7
20260502012118 10 348 3.2 9.7 0.00 0.00 0.00 40 965.6
20260502011619 10 309 3.2 8.0 0.00 0.00 0.00 40 965.5
20260502011119 10 52 3.2 6.4 0.00 0.00 0.00 39 965.5
20260502010619 10 67 3.2 6.4 0.00 0.00 0.00 39 965.4
20260502010119 11 50 3.2 6.4 0.00 0.00 0.00 38 965.3
20260502005619 11 356 3.2 6.4 0.00 0.00 0.00 38 965.4
20260502004613 11 11 3.2 9.7 0.00 0.00 0.00 37 965.2
20260502004113 11 23 3.2 11.3 0.00 0.00 0.00 36 965.2
20260502003613 11 45 4.8 11.3 0.00 0.00 0.00 36 965.2
20260502003114 11 44 4.8 11.3 0.00 0.00 0.00 37 965.2
20260502002614 11 51 4.8 11.3 0.00 0.00 0.00 36 965.1
20260502001112 11 358 4.8 12.9 0.00 0.00 0.00 35 965.2
20260502000612 11 62 4.8 11.3 0.00 0.00 0.00 35 965.1
20260502000113 11 51 4.8 11.3 0.00 0.00 0.00 35 965.1
20260501235613 12 6 4.8 12.9 0.00 0.00 0.00 34 965.2
20260501235112 12 58 4.8 12.9 0.00 0.00 0.00 34 965.0
20260501234111 12 327 6.4 14.5 0.00 0.00 0.00 34 965.1
20260501233106 12 298 6.4 14.5 0.00 0.00 0.00 33 965.1
20260501232606 12 321 6.4 14.5 0.00 0.00 0.00 33 965.0
20260501231606 12 167 8.0 16.1 0.00 0.00 0.00 33 965.0
20260501231106 12 319 8.0 16.1 0.00 0.00 0.00 33 964.9
20260501230605 12 6 8.0 14.5 0.00 0.00 0.00 33 964.8
20260501225605 12 43 6.4 14.5 0.00 0.00 0.00 35 964.9
20260501225106 12 358 4.8 12.9 0.00 0.00 0.00 35 964.8
20260501224605 11 333 6.4 14.5 0.00 0.00 0.00 34 965.1
20260501223605 12 326 8.0 17.7 0.00 0.00 0.00 32 964.8
20260501222606 12 333 6.4 12.9 0.00 0.00 0.00 35 965.1
20260501222107 12 351 6.4 16.1 0.00 0.00 0.00 33 964.8
20260501221606 12 330 8.0 16.1 0.00 0.00 0.00 35 965.1
20260501221103 12 311 8.0 14.5 0.00 0.00 0.00 33 965.1
20260501220603 12 1 8.0 14.5 0.00 0.00 0.00 33 964.8
20260501220110 12 342 9.7 20.9 0.00 0.00 0.00 33 965.1
20260501215604 13 54 8.0 20.9 0.00 0.00 0.00 34 965.0
20260501215103 13 307 6.4 14.5 0.00 0.00 0.00 32 964.7
20260501214600 13 5 8.0 17.7 0.00 0.00 0.00 33 964.9
20260501214100 12 327 8.0 17.7 0.00 0.00 0.00 34 964.8
20260501213100 12 345 9.7 20.9 0.00 0.00 0.00 35 964.8
20260501212100 12 24 9.7 20.9 0.00 0.00 0.00 36 964.8
20260501211558 12 27 9.7 17.7 0.00 0.00 0.00 36 964.9
20260501211058 12 43 9.7 17.7 0.00 0.00 0.00 36 965.0
20260501210558 12 46 8.0 17.7 0.00 0.00 0.00 37 964.9
20260501205556 11 358 8.0 16.1 0.00 0.00 0.00 36 965.4
20260501205055 11 346 8.0 16.1 0.00 0.00 0.00 36 965.2
20260501204552 11 308 6.4 16.1 0.00 0.00 0.00 37 965.3
20260501204054 12 325 8.0 16.1 0.00 0.00 0.00 38 965.4
20260501203552 12 29 8.0 19.3 0.00 0.00 0.00 35 965.5
20260501203053 12 76 9.7 19.3 0.00 0.00 0.00 36 965.2
20260501202553 12 33 9.7 19.3 0.00 0.00 0.00 35 965.1
20260501201552 12 53 8.0 16.1 0.00 0.00 0.00 38 965.2
20260501201053 12 356 8.0 16.1 0.00 0.00 0.00 37 965.2
20260501200553 12 329 8.0 16.1 0.00 0.00 0.00 38 965.2
20260501200103 12 359 8.0 16.1 0.00 0.00 0.00 34 965.3
20260501195054 11 21 6.4 14.5 0.00 0.00 0.00 36 965.2
20260501194553 11 11 6.4 16.1 0.00 0.00 0.00 39 965.5
20260501194053 11 7 8.0 17.7 0.00 0.00 0.00 38 965.6
20260501193553 12 53 8.0 19.3 0.00 0.00 0.00 36 965.4
20260501193053 11 64 8.0 19.3 0.00 0.00 0.00 39 965.3
20260501192550 11 281 8.0 19.3 0.00 0.00 0.00 37 965.4
20260501192051 11 286 6.4 19.3 0.00 0.00 0.00 39 965.5
20260501191551 11 18 8.0 19.3 0.00 0.00 0.00 39 965.3
20260501191050 11 317 8.0 22.5 0.00 0.00 0.00 38 965.5
20260501185552 11 286 8.0 14.5 0.00 0.00 0.00 38 965.4
20260501185051 11 1 8.0 16.1 0.00 0.00 0.00 38 965.5
20260501184048 11 41 9.7 19.3 0.00 0.00 0.00 40 965.6
20260501183549 11 19 6.4 17.7 0.00 0.00 0.00 40 965.5
20260501183045 11 43 8.0 20.9 0.00 0.00 0.00 41 965.4
20260501182545 10 0 8.0 20.9 0.00 0.00 0.00 41 965.5
20260501182043 10 34 8.0 20.9 0.00 0.00 0.00 41 965.4
20260501181542 10 326 8.0 20.9 0.00 0.00 0.00 40 965.5
20260501181055 10 44 9.7 17.7 0.00 0.00 0.00 43 965.6
20260501180539 10 343 9.7 17.7 0.00 0.00 0.00 41 965.6
20260501180040 10 6 8.0 17.7 0.00 0.00 0.00 41 965.6
20260501175540 10 33 8.0 17.7 0.00 0.00 0.00 42 965.8
20260501175039 10 112 8.0 17.7 0.00 0.00 0.00 43 965.6
20260501174539 10 293 9.7 20.9 0.00 0.00 0.00 43 965.7
20260501174040 10 312 9.7 24.1 0.00 0.00 0.00 42 965.8
20260501173537 9 330 9.7 24.1 0.00 0.00 0.00 45 965.7
20260501173037 9 10 9.7 24.1 0.00 0.00 0.00 45 965.7
20260501172536 9 309 9.7 19.3 0.00 0.00 0.00 43 966.0
20260501172036 9 0 9.7 20.9 0.00 0.00 0.00 44 965.7
20260501171809 9 23 9.7 20.9 0.00 0.00 0.00 45 965.7
20260501171051 9 31 9.7 20.9 0.00 0.00 0.00 44 965.6
20260501170538 8 338 9.7 19.3 0.00 0.00 0.00 46 965.7
20260501170035 8 37 9.7 19.3 0.00 0.00 0.00 44 965.9
20260501165534 8 343 8.0 19.3 0.00 0.00 0.00 46 965.7
20260501164528 8 17 9.7 16.1 0.00 0.00 0.00 44 965.7
20260501164028 8 359 9.7 19.3 0.00 0.00 0.00 46 965.6
20260501163526 8 334 9.7 19.3 0.00 0.00 0.00 46 965.6
20260501162023 8 323 9.7 22.5 0.00 0.00 0.00 48 965.5
20260501161523 7 299 9.7 17.7 0.00 0.00 0.00 48 965.8
20260501161023 7 310 9.7 16.1 0.00 0.00 0.00 46 965.8
20260501160520 7 4 9.7 24.1 0.00 0.00 0.00 47 965.7
20260501160020 7 315 9.7 24.1 0.00 0.00 0.00 49 966.1
20260501155521 7 296 8.0 19.3 0.00 0.00 0.00 50 965.7
20260501155020 7 123 9.7 19.3 0.00 0.00 0.00 50 966.1
20260501154520 7 308 9.7 19.3 0.00 0.00 0.00 48 966.1
20260501154020 7 295 9.7 17.7 0.00 0.00 0.00 48 965.9
20260501153521 7 17 8.0 17.7 0.00 0.00 0.00 49 965.8
20260501153020 7 346 8.0 17.7 0.00 0.00 0.00 49 965.6
20260501152517 7 274 8.0 17.7 0.00 0.00 0.00 50 966.1
20260501152018 7 323 8.0 14.5 0.00 0.00 0.00 50 965.9
20260501151514 7 38 8.0 14.5 0.00 0.00 0.00 52 965.6
20260501151014 7 63 8.0 16.1 0.00 0.00 0.00 53 965.7
20260501150514 6 45 6.4 16.1 0.00 0.00 0.00 52 965.9
20260501150014 6 331 6.4 14.5 0.00 0.00 0.00 53 965.9
20260501145511 6 28 8.0 14.5 0.00 0.00 0.00 54 965.9
20260501145012 6 57 6.4 14.5 0.00 0.00 0.00 53 965.9
20260501143232 6 349 6.4 14.5 0.00 0.00 0.00 56 965.9
20260501142513 6 291 6.4 14.5 0.00 0.00 0.00 57 965.8
20260501142012 6 20 6.4 17.7 0.00 0.00 0.00 58 965.8
20260501141512 6 61 6.4 17.7 0.00 0.00 0.00 59 965.7
20260501141010 6 14 6.4 14.5 0.00 0.00 0.00 61 965.7
20260501140006 5 356 6.4 16.1 0.00 0.00 0.00 64 965.7